Location: The Rolnick Observatory
(41.1711°N, 73.3275°W)
Time: 23:14:09
(UTC-04:00)

ISS - Pass Details

Date: 26 February 2019
Orbit: 406 x 411 km, 51.6° (Epoch: 21 March)

Event Time Altitude Azimuth Distance (km) Brightness Sun altitude
Exits shadow 05:45:53 13° 260° (W) 1,273 -1.9 -9.6°
Maximum altitude 05:48:32 42° 330° (NNW) 592 -3.3 -9.1°
Drops below altitude 10° 05:51:41 10° 44° (NE) 1,468 -0.4 -8.5°
Sets 05:53:51 0° 51° (NE) 2,332 0.8 -8.1°
